Location: Praha
(50.0830°N, 14.4670°E)
Time: 00:57:47
(UTC+01:00)

ISS - Pass Details

Date: 25 November 2020
Orbit: 418 x 420 km, 51.6° (Epoch: 05 December)

Event Time Altitude Azimuth Distance (km) Brightness Sun altitude
Rises 18:56:58 0° 265° (W) 2,361 1.4 -26.6°
Reaches altitude 10° 18:59:04 10° 268° (W) 1,498 0.0 -27.0°
Enters shadow 19:00:32 24° 273° (W) 926 -1.3 -27.2°
